RH
64 50 33 23 19 19 20 20 20 23 28 33 34 31 25 19 14 12 10 9 8 9 9 9 9 9 8 9 9 10 12 14 18 20 23 25 26 27 28 28 29 27 21 15 11 12 16 17 17 15 12 11 10 10 11 12 14 17 18 20 21 24 26 28 31 32 33 34 37 42 48 55 65 76 87 95 100 101 101 99 95 91 86 78 67 55 44
40 27 20 19 19 20 21 22 26 31 33 31 25 19 14 11 10 9 9 9 9 9 9 9 9 9 9 11 12 14 18 21 24 26 27 28 28 29 30 28 24 17 12 10 12 15 17 15 13 11 10 11 12 14 15 16 20 23 26 28 30 31 32 31 32 34 37 44 53 64 73 80 86 91 97 99 99 97 93 87 79 69 59 49 39 33 28
21 20 19 19 19 23 28 31 32 29 24 18 13 11 10 8 9 9 9 9 9 9 9 9 10 11 12 15 18 22 25 26 28 28 28 29 29 28 25 19 13 10 10 12 14 14 14 12 11 11 12 15 17 18 19 21 25 27 29 31 32 33 36 39 44 51 60 69 78 85 88 89 90 91 92 91 88 82 73 64 55 45 37 31 28 28 29
20 20 21 24 27 31 33 29 23 16 12 10 8 8 8 8 8 9 9 9 9 9 10 11 13 16 18 22 25 26 28 28 29 29 30 29 25 19 14 10 8 10 11 12 12 12 12 12 13 14 16 19 21 22 23 24 26 28 30 34 39 47 55 64 70 75 80 84 87 88 87 86 85 82 78 75 68 61 53 45 38 31 28 30 33 37 43
23 27 30 32 30 25 20 16 12 9 7 7 7 7 7 8 8 9 9 10 10 12 14 16 20 23 24 27 28 28 29 29 28 26 22 18 13 9 8 8 9 10 11 11 11 12 13 15 16 18 20 21 22 23 25 28 33 39 46 54 63 71 78 82 82 81 82 84 85 86 83 78 74 69 64 58 52 46 40 34 31 31 35 41 48 54 58
30 31 28 23 17 11 8 7 7 6 6 6 6 7 7 8 9 10 11 13 15 18 20 23 24 26 26 26 25 24 22 20 17 14 10 9 8 8 9 10 10 10 11 12 13 15 17 18 20 21 22 25 29 34 40 47 56 63 70 74 77 81 83 83 79 78 80 81 79 77 72 67 62 57 51 47 43 39 35 33 36 43 52 60 64 63 58
23 17 12 9 8 6 6 6 6 6 7 7 7 8 10 11 13 15 16 19 21 22 22 23 22 22 20 17 15 14 11 10 9 8 8 8 9 10 11 12 12 13 14 15 16 18 19 21 24 28 34 41 50 57 63 68 73 76 76 77 77 78 80 79 76 75 76 74 70 66 61 57 52 47 44 42 39 37 38 44 55 65 70 68 61 52 44
9 7 6 6 5 5 6 7 8 9 10 11 12 14 15 17 18 19 19 19 19 18 17 16 14 12 11 9 8 8 8 8 9 9 10 12 12 13 14 15 15 16 17 18 20 21 24 29 36 44 53 60 66 69 72 74 76 75 73 74 75 76 77 75 73 72 70 66 63 59 54 49 45 42 41 40 41 46 56 67 75 74 66 54 44 39 36
6 6 5 6 7 9 10 12 13 15 16 16 17 16 16 16 15 14 13 12 11 10 9 8 7 7 7 8 9 10 11 11 12 12 13 13 14 15 15 16 18 20 23 27 30 34 40 46 51 57 63 68 69 71 73 73 73 72 73 74 75 74 74 72 70 67 64 61 57 54 50 47 43 41 43 49 58 69 77 78 73 61 48 40 37 37 36
6 7 9 12 13 14 15 16 16 16 15 14 13 11 10 9 8 7 7 6 6 6 6 6 7 8 10 11 12 12 12 12 13 13 14 15 18 20 22 25 30 35 40 45 48 52 56 59 62 65 67 69 69 71 72 72 72 73 74 74 74 73 72 69 66 63 59 55 53 50 49 47 46 50 60 71 79 81 76 67 56 46 40 39 39 38 39
12 14 15 15 15 15 15 14 13 11 9 8 6 6 5 5 5 5 5 5 6 6 7 8 9 10 11 11 12 12 14 16 18 20 23 26 31 35 38 42 47 51 54 57 60 62 64 65 66 66 67 67 69 71 72 72 73 74 74 73 72 71 69 66 63 59 54 51 52 53 53 54 59 70 80 83 79 70 60 52 45 42 41 41 41 41 42
15 15 14 14 14 13 12 11 10 9 8 7 7 7 7 7 8 8 8 9 9 9 10 10 11 13 14 16 18 21 24 27 30 32 35 39 43 46 49 52 54 56 57 60 62 63 64 65 64 65 66 67 70 72 72 72 73 73 73 72 71 69 66 64 61 56 53 53 56 60 63 69 79 84 82 74 64 56 51 48 46 44 44 43 44 44 44
13 13 14 14 14 15 14 15 15 15 16 16 17 18 18 18 18 17 17 18 18 18 19 20 22 24 25 27 29 32 34 36 38 40 42 45 47 49 51 52 54 56 58 59 61 63 64 64 64 66 67 68 70 72 72 72 73 72 72 71 70 68 66 64 62 60 60 63 68 73 78 83 84 78 67 59 54 51 49 48 46 46 45 45 45 46 47
15 16 17 18 19 20 20 21 22 23 23 23 24 25 25 25 25 25 25 25 26 26 27 28 30 31 32 34 35 36 38 40 42 43 44 46 47 48 50 51 54 56 57 59 61 63 65 65 66 66 67 67 70 72 73 73 73 73 73 71 70 69 68 67 66 68 71 76 81 85 86 82 74 63 57 54 51 50 50 48 46 47 47 48 48 49 48
20 20 21 21 21 21 21 22 22 23 23 23 25 26 26 26 26 27 27 27 28 29 29 30 30 30 32 34 34 36 38 38 40 41 41 42 44 45 47 50 52 55 56 59 61 63 65 66 66 67 68 70 71 73 75 75 76 76 75 74 74 73 72 73 76 80 85 87 87 85 80 71 61 55 54 53 51 52 52 48 47 50 51 51 51 49 47
19 19 19 18 18 19 19 19 20 20 21 21 22 23 23 23 24 25 26 26 27 28 28 29 30 30 31 32 33 34 34 34 36 37 38 40 42 43 45 48 52 55 57 60 62 64 66 67 69 71 73 75 76 78 79 80 80 79 78 78 78 78 80 85 90 91 90 87 82 76 67 59 56 54 54 54 55 56 54 51 51 54 53 52 50 49 48
17 18 18 19 19 19 20 20 20 21 21 21 22 22 21 20 21 21 22 22 23 25 26 27 28 29 29 29 30 31 31 32 33 35 37 39 41 43 46 50 54 58 61 64 66 69 71 73 75 78 79 81 83 83 84 84 83 81 81 82 82 85 90 93 91 87 83 78 72 65 58 55 56 55 56 59 59 58 58 57 56 54 53 51 51 51 52
19 20 20 20 20 21 21 22 21 21 22 22 22 23 21 21 22 21 21 22 22 23 23 23 23 25 25 25 26 26 27 29 31 33 36 39 43 48 51 55 59 64 67 71 73 76 79 81 83 84 85 87 87 87 88 88 86 85 87 87 88 90 90 86 81 78 75 70 65 60 57 57 57 56 58 60 61 60 61 61 57 53 53 54 54 53 51
20 21 21 21 22 21 22 22 22 23 23 22 23 23 22 22 23 22 23 23 22 22 22 21 22 23 23 23 24 25 27 29 31 35 39 44 49 53 57 61 65 69 72 75 79 83 85 87 88 88 89 89 89 89 91 91 89 90 90 88 86 84 80 76 74 73 69 64 60 58 56 55 55 56 58 60 62 61 60 58 55 55 56 55 52 46 41
21 21 21 22 22 22 22 23 23 24 24 23 24 24 23 22 22 22 22 21 21 22 22 22 23 23 23 24 26 26 27 29 33 39 44 49 52 55 59 64 67 70 72 74 78 83 84 86 88 87 88 89 88 88 88 88 88 87 83 80 77 74 73 72 70 66 62 60 58 54 51 50 52 56 59 60 62 60 57 56 57 57 53 46 38 34 32
21 22 21 22 22 22 23 23 22 23 23 23 23 22 22 21 20 20 21 20 21 22 22 21 22 22 21 23 23 22 22 24 29 34 37 40 43 45 50 54 55 59 62 65 71 75 77 80 82 80 80 79 75 74 75 73 72 71 68 68 70 70 70 70 66 62 60 59 58 56 54 53 56 59 60 60 60 58 57 58 57 50 41 32 28 29 33
21 21 21 22 22 22 22 22 22 22 21 20 20 21 20 20 19 19 20 20 19 20 19 18 18 15 14 14 14 12 11 13 16 18 19 22 25 28 31 34 37 42 46 50 56 60 60 62 61 58 59 54 48 50 54 51 52 54 55 59 64 67 66 64 61 61 60 59 60 61 61 59 59 61 61 60 59 59 60 57 48 37 29 26 27 30 35
21 21 21 21 22 22 22 21 21 20 19 18 18 19 19 19 19 19 18 17 16 15 13 11 10 8 6 6 5 4 4 5 6 6 6 10 12 13 16 18 22 27 30 32 34 35 33 33 30 30 34 30 25 30 35 35 39 44 47 52 59 60 59 58 59 59 59 59 62 65 66 63 60 60 61 60 61 62 57 48 37 29 26 26 26 29 33
20 21 21 21 21 21 21 20 20 19 18 17 16 16 17 18 18 17 16 15 13 11 8 6 5 4 3 3 2 3 2 2 3 3 3 5 5 6 8 9 10 13 14 14 14 14 13 13 12 14 19 17 16 22 26 28 34 38 40 47 52 52 52 56 59 59 59 60 64 66 67 65 61 61 63 63 63 59 49 37 30 27 25 25 25 28 31
20 21 21 21 21 21 20 20 19 18 17 16 15 14 15 16 17 17 16 13 10 8 5 4 3 3 3 2 2 2 2 2 2 2 2 3 3 3 4 4 4 5 6 6 6 6 6 7 8 10 13 13 16 20 22 26 32 34 36 41 44 46 49 53 57 60 61 62 64 64 65 64 63 63 65 64 61 52 40 32 28 26 25 24 25 27 29
21 21 21 21 21 21 20 20 19 18 16 15 14 13 14 15 17 17 15 11 8 6 4 3 3 2 2 2 2 2 2 2 2 2 2 3 3 3 4 4 4 5 5 5 6 5 6 7 8 10 12 13 16 19 20 24 29 31 33 37 40 44 48 50 54 59 61 61 61 61 62 63 63 63 64 63 56 45 35 31 28 26 25 25 25 28 31
21 21 22 22 21 21 20 18 17 16 15 14 13 12 13 15 17 17 14 10 7 5 4 3 3 2 2 2 2 2 2 2 2 2 3 3 3 4 5 5 5 5 5 6 6 6 7 8 9 11 13 14 17 20 22 25 29 31 34 38 41 44 48 49 52 57 58 59 60 60 61 63 63 62 63 60 51 41 34 31 29 27 27 26 26 29 33
22 22 22 22 21 21 19 17 15 14 14 14 12 11 12 16 17 16 13 9 6 4 3 3 2 2 2 2 2 2 2 2 3 3 4 4 4 5 5 5 6 6 6 6 7 8 9 10 11 14 16 18 20 24 26 29 32 34 36 40 42 45 49 51 54 57 59 61 63 64 64 64 63 64 63 57 47 40 35 32 30 29 28 27 28 31 33
22 22 22 22 21 19 18 16 14 13 13 12 11 11 14 18 18 16 12 8 5 4 3 2 2 2 2 2 2 2 3 3 3 4 4 5 5 6 6 6 6 7 7 8 9 9 11 13 15 17 20 22 25 28 30 32 35 37 40 43 45 48 52 54 56 59 62 64 67 68 67 66 65 66 63 55 46 40 36 34 32 31 30 29 30 33 35
22 22 22 22 20 18 16 15 14 13 12 11 10 12 16 19 18 15 11 7 5 4 3 2 2 2 2 2 2 3 3 3 4 4 5 6 6 6 7 7 7 8 9 9 11 12 14 16 18 21 24 26 29 31 34 36 38 41 44 46 48 51 55 57 60 63 65 67 70 70 68 67 68 67 62 54 47 42 38 36 34 33 32 32 34 37 41
23 22 22 21 19 17 15 14 13 12 11 10 10 13 17 19 18 14 10 7 5 4 3 2 2 2 3 3 3 3 4 4 5 5 6 7 7 7 8 8 8 9 10 11 13 15 17 19 21 25 27 29 32 35 37 39 42 44 47 49 52 54 57 59 62 66 68 69 71 72 71 71 71 69 61 53 48 43 40 38 37 36 36 38 41 46 48
22 22 21 19 17 16 15 13 12 11 10 10 11 14 17 19 18 14 10 6 4 3 3 3 2 2 3 3 3 4 4 5 5 6 7 8 8 8 9 10 10 11 12 14 15 17 19 21 24 27 30 32 34 37 40 42 45 47 49 52 54 56 59 61 65 68 71 71 70 70 71 74 74 69 61 54 49 45 42 40 40 39 41 46 52 56 56
22 21 19 18 16 15 14 12 10 10 9 10 12 14 18 19 18 13 9 6 4 3 3 3 2 3 3 3 4 4 5 5 6 7 7 8 9 10 10 11 12 13 15 16 17 19 22 24 26 29 32 34 36 39 43 45 47 50 52 53 55 57 60 63 67 70 72 71 69 68 71 75 74 69 62 56 51 48 45 44 43 44 50 57 63 65 62
22 20 18 17 15 13 12 10 9 9 9 10 13 16 19 19 17 13 8 5 4 3 3 3 3 3 3 4 4 5 6 6 7 8 8 9 10 11 11 13 14 15 17 19 20 22 25 27 29 32 34 36 39 42 45 47 50 52 53 54 56 58 60 64 69 71 71 69 68 71 75 77 75 69 63 57 53 51 48 46 46 50 57 66 69 67 63
22 19 18 16 13 11 11 9 8 8 9 11 14 17 19 19 17 13 8 5 4 3 3 3 3 3 3 4 5 5 6 7 8 8 9 10 11 12 13 14 16 17 20 22 23 25 28 30 33 35 37 39 42 44 46 49 52 53 54 55 56 57 60 64 68 69 68 67 68 73 78 79 75 69 64 59 56 53 49 48 50 54 62 69 70 66 62
21 19 17 15 11 10 10 8 8 9 10 11 14 18 20 20 17 13 8 5 4 3 3 3 3 3 4 4 5 6 7 8 9 9 9 10 11 12 13 15 17 18 22 25 26 28 31 34 36 38 41 42 44 46 49 51 53 54 54 56 57 58 60 63 65 66 67 67 69 74 79 79 75 69 66 62 59 55 51 50 52 58 65 69 68 63 61
21 19 17 13 10 9 9 8 8 9 11 12 15 18 21 20 17 12 8 5 3 3 3 3 3 3 4 4 5 7 7 8 9 10 10 10 11 13 14 16 17 19 23 27 27 29 34 38 40 41 44 45 46 49 51 52 53 55 55 56 58 59 61 61 62 64 65 67 70 74 78 78 75 71 68 65 61 57 53 51 54 60 67 69 66 62 60
21 19 15 12 10 9 8 8 8 9 11 13 15 19 22 21 17 12 7 4 3 4 3 3 3 3 4 5 5 6 8 8 9 10 10 11 11 12 15 16 17 19 24 27 27 30 35 39 41 43 46 47 49 51 52 53 54 56 56 57 58 59 60 60 61 63 64 66 68 72 75 76 75 73 72 69 64 58 54 52 56 63 70 70 66 62 61
21 18 14 12 10 8 8 9 9 9 12 13 15 19 22 22 18 13 8 5 4 4 3 3 3 3 4 5 6 6 7 9 9 9 11 11 11 12 15 17 17 19 24 26 26 29 34 38 40 43 47 49 51 52 53 54 55 56 57 58 58 58 59 59 61 62 64 65 66 70 74 77 77 77 76 72 65 59 55 55 59 67 72 73 68 65 66
22 18 15 12 10 8 9 9 9 10 12 13 14 18 21 22 19 15 9 5 4 4 3 3 3 3 4 4 6 6 7 9 9 9 11 12 11 12 15 16 16 19 23 23 24 28 32 35 38 42 46 49 52 53 54 55 57 57 57 58 58 58 58 59 60 62 64 65 66 69 74 78 79 81 80 74 66 59 57 57 61 68 74 75 72 70 71
22 19 15 12 9 8 9 9 9 11 12 12 14 17 20 22 21 16 10 7 5 4 4 4 3 3 4 4 5 6 7 8 9 10 11 12 12 13 14 15 15 18 20 21 22 26 29 32 36 41 45 49 52 55 56 57 58 58 58 58 58 57 57 59 61 62 63 64 65 68 73 78 82 84 83 76 66 59 57 59 63 68 74 77 77 76 78
23 19 16 13 9 8 9 9 10 11 11 11 13 15 18 22 23 18 12 9 5 3 4 4 3 3 4 4 5 6 7 8 9 11 11 12 12 13 13 13 15 18 19 19 22 24 26 29 34 38 43 48 53 55 57 59 59 59 59 58 58 57 57 58 60 61 62 62 64 67 72 79 84 86 84 78 67 59 56 59 63 67 73 79 82 83 84
23 20 17 13 9 8 9 9 10 11 11 11 12 14 16 22 24 20 14 10 6 4 4 4 3 4 4 4 5 6 7 8 10 11 11 12 12 13 13 13 14 16 17 18 21 23 25 28 32 36 41 47 52 56 59 60 60 60 60 59 57 57 57 58 59 60 60 60 62 65 72 79 85 87 86 79 69 59 56 58 62 66 71 79 85 88 87
24 21 19 15 10 8 9 9 9 10 11 10 12 13 17 23 26 23 17 11 7 4 3 4 4 4 4 4 5 6 6 8 10 11 12 12 13 13 12 12 14 15 16 17 19 21 23 27 30 34 40 46 52 57 60 62 62 62 61 59 58 57 57 58 58 58 58 58 60 65 72 80 85 87 86 80 70 60 56 59 63 65 68 77 86 90 90
24 22 20 16 11 9 8 7 8 9 10 10 12 13 16 23 27 26 21 14 7 3 3 4 4 4 4 5 5 6 7 8 10 11 12 12 13 13 12 13 14 15 15 16 17 19 21 25 28 33 39 45 51 57 61 63 63 63 62 60 59 57 57 58 57 56 55 56 59 64 73 80 85 87 86 80 70 61 57 59 64 66 68 74 84 92 94
25 24 22 18 14 11 8 7 7 9 9 11 13 13 16 22 28 29 27 19 9 3 3 4 4 4 5 5 5 6 7 8 9 11 12 13 13 13 12 13 14 14 13 15 16 17 19 23 27 32 38 44 50 57 62 64 65 65 63 61 60 57 56 56 55 53 52 54 57 62 71 79 84 86 85 79 71 63 58 59 62 65 68 72 81 91 97
25 25 23 20 16 13 9 7 7 8 9 11 13 14 16 21 26 30 31 25 14 5 3 4 4 4 5 5 5 6 7 8 9 11 13 14 14 13 13 13 14 13 13 14 16 17 19 23 26 31 37 42 49 57 63 66 67 66 65 62 60 56 55 55 53 51 51 52 53 57 66 75 81 85 85 80 71 65 61 60 62 65 69 73 80 88 95
24 24 24 21 18 15 11 8 7 8 9 11 13 14 16 20 25 30 34 30 20 9 4 4 4 4 4 5 6 6 7 8 9 11 14 15 15 14 13 14 14 14 14 14 15 17 20 23 26 31 36 41 48 56 63 67 68 68 66 63 59 56 54 53 51 49 49 50 49 52 59 68 75 81 83 79 71 66 64 63 64 66 72 79 85 89 92
24 24 24 23 21 18 14 10 8 8 8 9 12 14 15 18 23 28 33 34 28 17 7 4 4 4 4 5 6 6 7 8 9 11 14 17 16 15 14 15 14 14 14 15 16 17 19 22 26 31 35 41 48 56 63 68 69 69 67 64 59 55 53 51 49 48 49 47 45 46 51 58 65 73 77 76 70 66 66 67 67 71 78 86 90 93 94
24 24 24 23 22 20 16 12 9 8 7 8 11 13 15 18 22 25 30 36 36 26 13 5 4 4 4 5 6 6 7 8 10 11 14 16 16 16 16 15 14 15 15 15 16 18 20 22 26 31 35 40 47 55 63 69 70 70 68 64 60 55 52 50 49 48 48 44 41 40 42 47 53 62 68 69 66 65 66 69 72 77 84 90 92 94 96
24 24 24 23 22 22 18 14 11 9 8 8 9 11 14 18 21 22 27 35 40 33 21 10 6 5 4 5 6 6 7 8 10 12 14 16 17 18 17 16 15 15 15 15 16 18 20 23 26 30 35 40 46 54 63 69 71 71 70 66 60 56 53 50 49 49 47 41 36 33 35 37 42 49 55 60 61 63 66 71 76 82 88 90 90 90 92
24 24 23 22 23 23 20 17 13 10 8 8 9 10 13 18 21 22 25 32 40 40 32 20 10 5 4 5 5 6 7 8 10 11 13 15 16 18 18 18 17 16 15 15 17 19 21 23 26 30 35 40 45 53 63 70 72 72 71 67 61 56 53 51 50 49 46 39 32 29 29 30 33 38 44 51 57 62 68 74 80 86 90 90 87 85 86
Wind_Speed
16 17 16 14 12 10 9 8 8 8 8 8 9 10 12 13 14 15 15 16 17 17 17 19 20 21 22 22 22 23 24 25 26 27 28 29 31 32 33 35 37 39 39 37 34 31 29 29 29 30 30 29 29 29 28 28 28 28 29 29 30 31 32 32 33 34 35 36 36 36 37 37 38 38 37 38 38 39 39 40 40 40 40 39 40 41 41
15 14 11 10 8 8 7 7 7 7 8 9 10 12 14 14 15 16 16 17 18 19 20 20 21 21 21 22 23 25 26 27 28 29 30 31 32 34 35 37 38 38 36 33 30 29 29 30 30 30 30 29 29 29 29 29 30 30 31 31 32 33 34 35 35 36 36 36 36 36 37 37 38 37 37 37 37 37 38 38 38 39 38 38 39 39 39
10 8 7 7 6 6 7 7 8 9 11 12 13 14 15 16 16 17 18 18 19 20 20 21 21 22 23 24 25 26 27 28 29 31 32 33 34 36 37 37 36 34 32 30 29 29 29 30 30 30 30 30 30 30 31 31 32 32 33 34 34 35 36 37 38 38 37 36 36 36 36 37 37 37 36 36 36 36 37 37 37 37 37 37 38 39 41
6 6 6 6 6 7 7 9 10 12 13 15 16 16 17 17 17 18 18 19 19 20 21 22 23 24 25 26 27 27 28 30 31 32 33 35 36 36 35 34 32 30 29 29 29 29 29 30 30 31 31 31 31 32 32 33 34 34 35 36 36 36 36 37 38 37 37 36 36 36 37 37 37 36 36 35 36 36 37 37 37 37 38 39 40 42 43
5 5 6 6 7 8 10 11 13 14 15 16 16 16 17 17 18 18 19 19 21 22 23 24 25 25 26 27 28 29 30 31 32 33 34 35 34 33 31 30 29 29 28 28 29 29 29 30 31 31 32 32 33 33 34 34 35 35 36 36 36 35 35 36 37 37 37 36 36 36 37 36 36 36 35 36 36 36 36 36 37 37 39 40 42 43 45
5 5 6 8 9 11 12 13 14 15 15 16 16 16 17 18 19 20 21 22 23 24 25 25 26 27 28 29 30 31 31 32 32 32 32 31 30 29 28 28 28 28 28 28 29 29 30 30 31 32 32 33 34 34 35 35 35 36 36 35 35 35 35 35 36 36 36 36 36 36 35 35 35 35 36 36 36 36 36 37 38 39 41 42 43 44 46
6 7 8 10 11 12 13 14 14 15 16 16 17 18 19 20 21 22 23 24 25 26 26 27 28 29 29 30 30 30 30 29 29 28 28 27 27 27 28 28 28 28 29 29 30 30 31 31 31 32 33 33 33 34 35 35 35 35 35 35 35 35 35 36 36 36 35 35 35 35 35 35 35 35 36 37 37 37 38 39 40 42 43 43 44 45 47
7 9 10 11 12 13 13 14 15 17 18 19 20 21 22 23 24 25 25 26 27 27 28 28 28 28 28 28 27 27 27 27 26 26 26 27 27 27 28 28 29 29 30 31 31 32 32 33 33 33 33 33 34 34 34 35 35 36 36 36 36 35 35 35 36 35 35 35 35 35 35 35 35 36 37 37 38 39 40 41 42 43 43 44 44 46 48
8 9 10 11 13 14 15 17 18 19 21 22 23 24 24 25 26 26 26 27 26 26 26 26 25 25 25 25 25 25 25 26 26 26 26 27 27 28 29 29 30 30 31 32 32 32 33 34 34 34 34 34 34 35 35 35 35 36 36 36 35 35 35 35 36 35 35 35 35 35 35 35 35 36 37 39 40 41 42 42 43 43 43 44 46 48 50
9 11 12 14 15 17 18 19 20 21 22 23 23 24 24 25 25 24 24 24 24 24 23 23 23 23 24 24 25 25 25 26 26 27 27 27 28 29 29 30 30 31 32 32 33 33 33 34 34 34 35 35 35 35 35 35 36 36 35 35 34 34 35 35 35 35 35 35 35 35 36 36 36 37 39 40 41 41 41 41 42 43 44 46 49 50 52
12 13 15 16 17 18 19 20 20 21 21 22 22 22 22 23 22 22 22 22 22 22 22 23 23 23 24 25 25 25 26 26 27 27 28 28 29 29 30 30 31 32 32 32 33 33 33 34 34 35 35 35 35 35 35 35 36 35 35 35 35 35 34 34 34 34 34 35 35 36 37 37 38 39 40 41 40 40 41 41 43 45 47 49 51 52 54
14 15 16 17 18 18 19 20 20 21 21 21 21 21 21 21 21 21 22 21 22 22 22 23 23 24 24 25 25 26 26 27 27 28 28 28 29 29 30 30 31 32 32 32 33 33 34 34 35 35 36 36 35 35 35 35 35 35 35 35 35 35 34 34 34 34 34 35 36 37 38 39 40 41 41 41 41 42 42 43 45 47 49 51 53 54 56
15 16 16 17 18 19 19 20 20 20 20 21 21 21 21 21 21 22 22 22 22 22 23 23 23 24 25 25 26 26 26 26 27 27 28 28 29 29 30 31 31 32 32 33 33 34 34 35 35 35 36 35 35 35 35 35 35 34 35 35 34 34 34 34 34 34 35 36 38 39 39 40 40 41 41 42 43 43 44 45 46 49 51 53 55 56 58
16 17 18 18 19 19 20 20 20 21 21 21 22 22 22 22 22 22 22 22 22 22 23 23 24 24 25 25 25 26 26 26 27 28 28 29 29 30 31 32 32 33 33 34 34 34 35 35 36 36 36 35 35 34 34 34 34 34 34 34 34 34 34 35 35 36 37 38 39 39 39 40 40 41 42 43 44 46 47 48 50 52 54 55 57 58 60
18 19 19 20 20 20 21 21 22 22 22 22 23 23 23 22 22 22 22 22 23 22 23 23 24 24 24 25 25 26 26 27 28 28 29 30 30 31 32 32 33 33 34 34 35 35 35 36 36 36 36 36 35 35 34 34 34 33 33 33 33 34 35 36 37 38 38 39 39 39 39 40 41 42 44 45 47 49 51 53 54 55 56 57 59 60 62
20 20 21 21 22 22 22 23 23 23 23 23 23 23 23 23 23 23 23 23 23 23 23 24 24 24 25 25 26 26 27 28 28 29 30 30 31 32 32 33 33 34 34 35 35 35 36 36 36 36 36 35 35 35 34 34 34 33 33 34 35 36 36 37 38 38 38 38 39 40 40 41 42 43 45 48 50 52 54 56 56 56 58 59 60 62 63
21 22 23 23 24 24 25 25 25 25 25 25 25 25 25 24 24 24 24 24 24 24 24 24 24 25 25 26 26 27 27 28 29 30 30 31 32 33 33 33 34 34 35 35 35 35 36 36 35 35 34 34 33 33 33 33 33 34 34 35 35 36 36 37 36 36 37 38 39 40 41 42 43 45 48 50 52 54 56 57 57 57 59 61 62 63 65
23 24 25 26 26 27 27 28 28 29 29 29 28 28 27 26 26 25 25 25 25 24 24 25 25 25 26 26 27 27 28 28 29 30 31 32 32 33 33 34 34 35 35 35 35 34 34 34 33 32 32 32 32 32 32 32 33 33 34 34 35 35 35 36 36 36 37 39 40 41 43 44 46 48 50 52 53 54 56 57 58 59 60 62 63 65 67
24 25 26 26 27 28 29 30 31 31 32 33 32 31 30 29 28 28 27 26 26 25 25 26 26 26 27 27 28 28 29 30 30 31 32 32 33 33 34 35 35 35 35 34 34 33 32 32 31 31 31 31 32 32 32 33 33 34 35 35 36 36 36 36 37 38 40 41 42 43 45 47 49 51 52 53 54 55 56 58 59 60 61 63 65 68 70
24 25 25 26 27 28 29 31 32 34 35 36 35 34 33 32 31 30 29 28 28 27 27 27 27 28 28 29 29 30 31 32 32 33 33 34 35 35 36 35 35 35 34 34 33 32 32 31 31 31 31 32 32 32 33 34 34 35 36 36 36 37 38 39 40 41 42 44 46 47 48 49 51 52 53 53 55 56 57 58 60 62 64 66 68 71 73
23 24 25 26 27 28 29 31 33 35 37 38 38 37 36 34 33 32 31 30 30 29 29 29 29 30 31 31 31 32 34 34 35 35 36 36 36 36 36 35 35 34 33 33 32 32 31 31 31 32 32 33 34 34 35 35 36 36 36 37 38 39 40 41 43 44 45 47 49 50 51 52 52 53 54 55 56 58 59 60 62 64 67 69 71 73 74
23 24 25 26 27 28 30 31 33 35 37 38 39 39 38 36 35 34 32 32 31 31 31 31 31 32 33 33 34 36 37 37 37 38 38 38 37 37 36 36 35 34 34 34 33 33 33 33 34 34 34 35 36 36 36 36 37 37 38 38 39 40 41 43 44 46 48 49 50 51 52 53 53 54 55 56 57 59 60 62 64 66 69 72 74 74 74
23 24 25 26 27 29 30 31 33 35 37 38 39 39 38 37 35 34 33 33 33 33 33 33 34 35 36 36 37 38 39 39 40 40 39 39 38 38 37 36 36 35 34 34 34 34 34 34 35 35 35 36 36 36 36 37 38 39 40 40 41 42 43 45 46 48 50 51 52 53 54 54 54 55 56 57 59 60 61 63 66 69 72 74 75 75 74
24 24 26 27 28 29 30 31 33 35 36 38 39 39 38 37 36 35 35 34 34 34 35 35 36 37 38 38 39 40 40 40 40 40 39 38 37 37 36 35 35 35 34 34 34 35 35 35 35 35 36 37 38 38 38 40 40 41 42 42 43 45 47 48 49 50 52 53 53 54 54 55 55 56 57 59 60 61 63 65 68 71 73 75 75 74 72
23 25 26 27 28 29 31 32 33 35 37 38 39 39 39 38 37 36 36 35 35 36 36 36 37 38 39 39 39 40 40 39 38 37 37 36 36 36 36 36 36 36 36 36 36 36 35 36 37 37 38 39 40 40 41 42 43 44 45 46 47 48 49 50 51 52 53 54 54 54 54 55 56 57 58 59 61 62 64 67 69 72 74 74 74 71 68
23 25 26 27 28 30 31 33 34 35 37 38 39 39 39 38 38 37 36 36 36 37 37 37 38 38 39 39 39 38 38 37 36 36 36 36 36 37 37 37 37 37 37 37 37 37 37 37 38 38 39 41 42 42 43 45 45 46 47 48 49 50 51 52 53 53 54 55 55 55 55 56 57 59 59 60 61 63 66 68 70 72 73 74 72 69 66
23 25 26 27 29 30 32 33 35 36 37 38 39 39 39 38 38 37 37 37 37 37 38 37 37 38 38 37 37 37 36 35 35 35 36 37 37 38 38 38 37 37 36 36 37 38 38 39 39 40 41 42 43 43 45 46 46 47 49 50 51 52 53 54 55 55 56 56 56 57 58 58 59 60 61 61 63 65 67 69 71 72 73 72 69 66 64
23 24 26 28 29 30 32 34 35 37 38 39 39 39 39 39 38 37 37 37 37 37 37 36 37 37 37 36 36 35 35 35 35 35 37 37 37 37 37 37 37 36 36 37 37 38 39 40 41 41 42 43 44 44 46 47 47 49 50 51 52 53 54 55 56 57 57 57 58 59 60 60 61 62 62 62 64 66 68 69 71 72 72 70 67 64 63
23 24 26 28 30 31 32 34 36 38 39 39 39 39 39 39 38 37 37 37 37 36 36 36 36 36 36 35 35 34 34 34 35 36 37 37 38 37 36 36 37 37 37 38 39 39 39 41 42 42 43 45 45 46 47 48 48 50 51 52 53 55 56 57 58 58 58 58 59 60 61 62 62 63 62 63 65 67 68 70 71 72 71 68 65 63 62
23 25 26 28 30 31 33 35 37 38 39 39 39 39 39 38 37 37 37 37 36 36 36 35 36 35 35 34 34 33 33 34 36 37 37 37 37 38 37 36 37 38 38 38 40 40 40 42 43 43 44 45 46 47 48 49 50 51 52 53 54 56 57 58 59 58 58 59 59 61 62 63 63 63 63 64 66 68 69 70 71 71 69 66 63 62 62
24 25 27 28 30 32 34 35 37 38 38 38 38 38 38 37 37 37 37 36 36 36 35 35 35 34 33 33 33 33 33 35 36 37 37 37 37 37 38 37 37 38 39 39 40 42 41 42 44 44 45 46 47 48 49 50 51 52 53 54 56 57 58 59 59 59 59 60 60 61 63 64 64 64 64 65 67 68 69 70 70 69 67 64 63 62 62
25 26 27 28 30 33 35 36 37 38 38 38 38 38 38 37 37 37 37 36 35 35 35 34 33 32 32 32 32 32 33 35 36 35 37 38 37 37 38 38 38 38 40 40 41 42 42 43 44 45 46 47 48 49 50 51 52 53 55 56 57 58 59 60 59 59 60 60 61 62 63 63 63 63 64 66 67 68 69 69 69 68 65 63 62 63 62
25 26 28 29 31 34 35 36 37 38 38 38 38 38 38 37 37 37 36 35 35 35 34 33 32 32 32 32 32 32 33 34 35 35 35 37 38 38 38 39 39 39 40 41 42 43 43 44 45 46 47 48 49 50 51 52 53 55 56 57 58 59 60 60 60 60 61 62 62 63 63 63 63 64 65 66 68 68 69 69 69 67 64 62 62 63 62
25 27 29 30 32 35 36 37 37 38 38 38 38 38 38 37 37 36 36 35 34 34 33 32 31 31 31 31 31 32 32 32 34 36 36 36 37 38 39 39 40 40 41 42 43 44 45 45 46 47 48 49 50 51 52 53 54 56 57 58 59 60 60 60 60 61 62 63 64 64 64 64 64 64 66 67 68 69 70 70 68 66 63 62 62 62 60
25 28 30 32 33 35 36 37 37 37 38 38 39 39 38 38 37 36 35 34 34 33 32 31 30 29 29 29 30 31 32 32 32 34 36 36 36 38 39 40 41 42 42 43 45 46 46 47 48 48 49 50 51 52 53 54 55 57 58 59 60 60 61 61 61 62 63 64 64 64 64 64 64 65 67 68 69 70 70 69 68 65 62 61 61 61 59
26 29 31 33 35 36 37 37 37 37 38 38 39 39 38 38 37 35 35 33 33 32 30 28 28 28 27 28 29 30 31 32 33 33 36 37 37 38 40 41 42 43 43 44 46 47 47 48 49 50 50 51 52 53 54 55 56 57 58 59 60 61 61 62 62 63 64 65 65 65 64 64 64 66 67 68 69 70 69 69 67 64 61 60 60 59 58
27 30 32 34 36 37 37 37 37 37 38 39 39 39 39 38 36 35 34 33 31 31 29 27 27 27 26 26 29 30 30 32 33 33 35 37 38 38 40 41 42 43 44 45 47 48 48 48 50 51 51 52 53 53 54 55 57 58 59 60 60 61 62 62 63 64 64 65 65 65 64 64 65 66 68 68 69 69 69 68 66 63 60 59 59 58 58
28 31 34 35 37 37 37 37 37 38 38 39 39 39 39 38 36 34 33 31 29 30 29 26 26 27 26 26 28 30 30 31 33 34 35 37 39 39 40 41 43 44 44 45 47 48 49 49 51 51 52 53 54 54 55 56 57 58 59 60 61 62 62 63 64 64 65 65 65 64 64 64 65 67 68 68 69 69 69 68 66 63 60 59 58 58 58
30 32 35 37 38 38 37 37 38 38 38 39 40 39 39 38 36 34 32 31 29 28 28 26 25 26 27 26 27 30 31 31 32 35 36 37 39 40 41 42 44 45 45 46 48 49 49 50 51 52 53 54 55 55 56 57 58 59 60 60 61 62 63 64 65 65 65 65 65 65 65 65 66 67 68 69 70 70 69 68 66 62 60 59 58 58 58
31 34 36 38 38 39 38 37 38 38 38 39 40 40 39 38 36 34 32 31 29 28 28 27 25 25 27 27 27 29 31 32 32 35 36 37 39 40 41 42 44 45 46 48 49 50 50 51 52 53 54 55 56 56 57 57 58 59 60 61 62 63 64 65 65 66 66 66 66 65 66 66 67 68 69 70 70 70 69 68 66 62 60 58 58 58 59
32 35 37 38 39 39 39 38 38 38 39 39 40 40 40 38 36 34 32 31 30 28 28 28 26 25 26 27 27 28 31 32 33 35 36 38 39 41 42 43 45 46 47 49 50 51 52 52 53 54 55 56 56 57 58 58 59 59 60 61 62 63 64 65 66 66 66 66 66 66 67 67 68 69 70 70 71 70 69 68 66 63 60 58 57 58 59
32 35 37 39 40 40 39 39 39 39 39 40 40 41 41 39 37 35 33 32 31 29 28 28 27 26 26 27 28 29 31 33 34 35 37 39 40 41 43 44 46 47 49 50 51 52 53 53 54 54 55 56 57 58 59 59 59 60 61 62 63 64 65 66 66 67 66 66 66 67 67 68 69 70 70 70 71 70 69 67 66 64 61 59 58 58 59
33 36 38 39 41 41 40 39 39 39 39 40 41 41 42 41 39 36 34 33 31 30 29 28 28 27 27 28 29 30 31 33 35 36 37 39 40 42 43 45 46 48 49 50 52 53 54 54 55 55 56 57 58 59 59 60 60 60 61 62 63 64 65 66 67 67 67 67 67 67 68 69 69 70 70 70 70 70 68 67 66 65 62 60 58 58 59
33 36 38 40 41 42 41 40 40 40 40 40 42 42 42 42 40 38 36 34 32 30 30 29 28 28 28 28 30 31 32 33 35 36 38 40 41 42 44 45 47 48 50 51 52 53 54 55 56 56 57 57 58 59 60 60 61 61 62 63 64 65 66 66 67 67 67 67 67 68 69 70 70 70 70 70 70 69 68 67 66 65 64 61 59 59 59
33 36 38 40 42 43 43 42 42 42 41 41 42 43 43 43 42 39 38 35 33 31 30 30 30 29 29 29 31 32 33 34 36 37 38 40 41 43 44 46 47 49 50 51 53 54 55 55 56 57 57 58 59 59 60 61 61 62 63 63 64 65 66 67 67 67 67 67 68 69 70 70 70 71 71 70 70 69 68 67 67 66 65 63 61 59 59
33 36 38 41 43 44 44 44 43 43 42 42 42 43 43 44 43 41 39 37 34 32 31 31 31 30 30 31 32 33 34 35 36 38 39 40 42 43 45 46 47 49 51 52 53 54 55 56 57 57 58 58 59 60 61 61 62 62 63 64 65 66 66 67 67 67 67 67 68 69 70 70 71 71 71 70 69 69 68 67 67 66 66 64 62 60 59
33 36 38 41 43 45 45 45 45 44 43 43 43 43 43 44 44 43 41 39 36 34 32 32 32 32 32 32 33 34 35 36 37 38 40 41 42 44 45 46 48 50 51 52 54 55 56 56 57 57 58 59 59 60 61 61 62 63 64 64 65 66 67 67 67 67 67 68 69 70 71 71 71 71 71 70 69 68 68 67 67 67 67 66 64 62 60
33 36 38 41 43 45 47 47 46 45 44 44 43 43 43 44 44 44 43 41 38 36 34 33 33 33 33 33 34 35 36 37 38 39 40 41 43 44 46 47 49 50 52 53 54 55 56 57 57 58 58 59 60 60 61 62 62 63 64 64 65 66 67 67 67 67 67 68 69 71 72 72 71 71 71 70 69 69 68 68 68 69 68 67 65 63 61
33 35 38 40 43 45 47 48 47 46 46 45 44 44 44 44 44 45 45 44 41 38 36 35 34 34 34 35 35 36 37 38 39 40 41 42 44 45 47 48 50 51 53 54 55 56 57 57 58 58 59 59 60 60 61 62 62 63 64 64 65 66 67 66 66 66 67 68 70 71 72 72 72 71 71 70 70 69 69 69 70 70 69 67 65 63 61
33 35 38 40 43 45 48 49 48 48 47 46 46 45 44 44 44 45 45 45 44 42 39 37 36 36 36 36 36 37 38 39 40 41 42 43 44 46 47 49 51 52 53 55 56 57 57 58 58 59 59 60 60 60 61 62 62 63 64 64 65 66 66 66 66 66 67 68 70 71 72 72 72 71 71 70 70 70 70 70 71 71 69 67 65 63 61
32 35 37 40 42 45 47 49 49 49 48 48 48 47 46 45 45 45 46 46 45 44 42 39 38 37 37 37 38 38 39 40 41 42 43 44 45 47 48 50 52 53 55 56 57 57 58 58 59 59 59 60 60 60 61 62 63 63 64 64 65 66 66 66 66 66 67 68 70 72 72 72 72 71 71 70 71 71 72 72 72 71 70 68 65 63 61
33 35 37 39 42 44 47 49 50 50 49 49 49 49 47 46 45 45 46 46 46 46 45 43 41 39 39 39 40 40 40 41 41 43 44 45 46 48 49 51 52 54 55 57 57 58 58 59 59 60 60 60 60 61 61 62 63 63 63 64 65 66 66 66 66 66 67 68 70 72 72 72 72 72 71 71 71 72 73 74 73 71 70 68 65 63 61
Wind_Direction
305 311 315 320 325 329 330 329 328 326 323 320 318 316 314 312 310 310 308 307 307 307 308 309 309 310 310 311 312 313 314 314 313 313 312 312 312 311 311 311 311 312 313 314 315 315 315 315 316 316 316 317 316 315 314 314 313 313 312 312 310 309 308 308 307 306 305 306 306 305 305 304 303 303 303 302 302 301 300 300 300 300 300 300 299 299 302
310 316 323 329 334 336 335 331 327 324 319 315 314 312 311 310 310 310 309 308 308 309 310 310 310 311 312 314 314 314 314 313 313 312 312 311 311 311 311 311 313 314 316 317 317 316 316 316 317 318 318 319 318 317 316 315 314 314 313 312 311 310 309 308 307 306 306 306 307 306 305 305 305 305 305 304 303 302 301 301 301 301 301 300 299 300 301
316 328 337 342 344 341 335 329 324 321 318 316 314 313 312 311 311 312 311 310 310 311 311 311 312 313 313 314 314 313 313 312 312 311 311 311 311 311 312 314 316 317 318 318 318 318 318 319 320 320 319 319 318 317 316 315 314 314 313 312 311 310 310 309 309 308 308 308 308 307 306 306 306 307 307 305 304 303 302 303 303 303 303 302 302 302 302
340 351 353 350 345 337 329 324 321 319 317 314 314 313 313 313 313 313 312 311 311 312 312 312 313 313 313 314 313 313 312 311 311 311 310 311 312 313 315 317 319 320 320 320 320 320 321 321 320 319 319 318 317 316 315 314 314 313 312 312 311 311 311 310 309 309 310 310 310 309 308 308 308 308 307 306 305 305 305 306 305 305 304 304 303 303 302
6 3 356 346 337 329 324 319 317 315 314 314 315 315 315 315 315 314 313 313 312 312 312 313 313 313 313 313 312 312 311 311 311 311 312 313 316 317 319 321 321 321 321 321 321 321 321 320 319 318 317 317 316 315 314 314 314 313 312 312 312 312 311 310 309 310 311 311 311 310 310 310 309 308 307 306 306 306 306 306 304 303 303 303 303 302 302
10 358 344 335 327 322 319 318 317 317 317 317 318 317 317 316 315 314 313 313 313 312 313 313 312 312 312 311 311 311 311 312 313 315 316 318 321 322 323 323 322 322 321 321 321 320 320 319 318 317 316 316 316 315 315 315 314 313 313 313 313 313 312 311 310 312 313 312 312 312 311 310 309 309 308 307 307 307 307 306 304 304 304 304 303 303 303
355 343 333 326 322 321 322 322 322 322 321 320 319 318 317 316 315 314 313 313 312 312 312 311 311 311 311 311 312 313 315 316 318 320 321 323 324 324 323 323 322 322 321 321 320 319 318 318 317 317 316 316 316 316 315 315 315 314 314 314 315 314 314 313 313 314 314 313 313 313 312 311 311 310 309 308 308 308 307 306 306 306 306 306 306 305 305
342 334 329 327 327 327 327 326 325 323 321 320 319 318 317 316 314 313 312 311 311 310 311 311 311 312 313 314 316 318 320 322 323 324 324 324 324 323 323 322 322 321 321 320 319 319 318 318 318 318 318 318 318 317 317 317 316 315 316 316 316 316 315 315 315 316 315 314 314 313 313 312 311 310 309 309 308 308 308 308 308 308 309 308 308 307 306
338 334 333 333 332 331 329 327 325 324 322 321 319 318 317 316 314 314 313 313 313 313 313 314 315 317 318 320 322 323 324 324 324 324 324 324 324 323 322 322 322 321 320 320 320 320 319 319 319 319 319 319 320 319 319 318 317 317 318 318 318 318 318 318 317 317 316 315 314 314 313 312 312 311 310 310 310 310 310 310 310 310 309 308 307 307 307
341 339 338 336 333 331 329 327 326 325 324 323 322 321 320 319 319 319 318 318 319 319 320 321 322 323 324 324 325 325 325 325 325 325 324 325 324 323 322 322 321 321 321 320 320 320 320 320 320 320 320 321 321 321 320 319 319 319 320 320 320 320 319 319 318 317 316 315 315 314 313 313 312 311 311 311 312 312 312 311 311 310 309 308 308 308 309
343 341 339 336 334 333 333 332 332 332 331 331 330 329 328 328 328 327 327 327 328 327 327 328 328 327 327 327 326 327 327 326 326 325 325 325 325 323 323 323 322 322 322 322 322 322 322 321 321 321 321 321 321 321 321 321 321 322 322 322 321 321 320 319 319 318 317 316 315 315 314 313 313 313 313 313 313 313 312 312 312 311 311 311 311 311 311
344 344 343 343 343 343 343 342 342 341 340 339 338 337 337 336 336 335 334 335 334 333 333 332 331 330 329 329 328 328 328 328 327 327 326 326 326 325 325 325 324 324 324 324 324 323 322 322 321 321 321 322 322 323 323 323 323 324 323 322 322 321 321 320 319 319 318 317 316 315 315 315 316 316 316 315 314 314 314 314 314 313 312 312 313 313 313
355 357 357 357 356 355 353 352 350 349 349 348 346 346 344 343 342 341 340 340 339 337 336 335 334 333 333 332 331 331 331 331 331 330 329 329 329 328 327 327 326 326 325 325 324 323 323 322 322 322 322 323 324 325 325 325 325 324 323 323 323 322 322 321 320 319 318 317 317 318 319 319 319 318 317 316 316 315 314 314 314 313 313 314 315 315 316
14 14 12 10 8 6 4 3 2 0 358 357 355 353 352 350 348 347 345 344 342 341 340 339 338 338 337 336 336 336 336 335 334 333 332 331 330 329 328 327 326 326 325 324 324 324 324 323 324 324 324 325 326 327 327 326 326 325 325 325 324 323 322 321 320 320 320 320 320 321 321 321 320 319 318 317 317 316 315 315 316 317 317 317 318 317 317
27 24 21 19 17 15 13 11 9 7 5 3 1 359 357 356 354 353 352 350 348 347 346 345 344 343 342 342 341 340 340 338 337 335 333 332 330 329 328 327 326 325 325 325 325 325 326 326 327 327 328 328 329 328 328 327 327 326 326 325 324 323 322 322 323 323 323 323 323 323 322 322 321 320 319 319 318 319 319 320 321 320 320 320 319 319 319
34 31 29 27 24 23 20 18 16 13 11 8 6 3 1 360 358 357 356 355 354 353 352 351 350 349 348 347 346 344 342 340 338 336 333 332 330 328 327 326 326 326 326 327 327 328 329 329 330 331 331 331 331 330 330 329 328 327 327 326 326 326 326 326 326 326 325 325 325 324 324 323 323 322 321 321 322 322 322 322 322 322 321 321 321 320 320
42 40 38 35 33 31 28 26 24 21 18 15 12 9 6 5 3 1 359 358 357 356 355 354 353 352 351 349 347 345 342 340 337 334 332 330 329 327 327 327 328 328 329 330 331 331 332 333 333 333 333 333 333 332 331 330 330 329 329 329 328 328 327 326 326 326 326 326 326 325 325 325 324 324 324 324 324 323 323 323 323 324 323 322 322 321 321
49 46 43 41 39 36 34 32 30 27 24 22 19 16 13 11 9 7 5 3 1 0 359 357 356 354 352 350 348 345 342 339 337 334 332 330 329 329 329 330 331 332 333 334 334 335 336 336 336 336 336 335 336 335 333 333 332 332 331 330 329 328 328 328 329 329 329 328 327 326 326 326 325 325 325 325 324 324 324 324 324 324 324 323 323 323 322
50 47 45 42 40 38 36 34 32 29 27 25 23 20 18 16 14 12 10 8 7 5 4 3 0 358 356 353 350 348 345 341 338 336 334 333 333 333 333 334 335 336 338 339 340 341 341 341 341 341 340 339 339 339 337 336 335 334 333 333 333 333 333 333 333 332 330 328 327 326 326 327 327 326 326 325 325 325 325 325 325 325 325 325 325 324 324
49 46 43 41 39 37 35 33 31 29 28 26 25 23 21 20 19 17 16 14 13 11 9 7 5 2 359 355 352 349 346 343 340 338 337 337 337 338 338 339 340 342 343 345 346 347 347 346 346 346 345 345 344 343 342 340 339 338 337 337 337 337 336 335 333 332 330 329 328 328 328 329 328 327 327 327 326 326 326 327 327 327 327 327 326 325 324
47 44 41 39 37 34 33 31 30 28 27 26 25 23 22 22 21 21 20 18 17 15 12 9 6 3 359 356 353 350 347 344 342 341 341 341 341 342 343 344 345 347 349 351 352 353 353 353 352 352 351 351 349 347 346 345 343 343 342 340 340 338 336 334 333 332 331 330 330 330 330 330 330 329 329 328 328 328 328 329 329 329 329 328 328 327 326
45 42 39 37 34 32 30 29 28 27 26 25 24 23 22 21 21 20 19 18 16 14 12 8 5 2 359 357 354 351 348 347 346 346 345 346 346 347 349 351 353 355 357 358 359 0 360 359 358 356 356 355 353 351 351 349 347 345 344 342 340 338 335 334 332 332 332 332 332 332 331 331 331 331 330 330 330 330 330 330 331 331 330 330 329 328 327
43 40 36 34 31 29 28 26 25 24 24 23 22 21 21 20 19 18 17 15 14 12 10 8 5 2 0 358 355 353 352 351 351 351 351 352 353 354 356 359 1 3 5 5 6 5 5 4 3 2 1 360 357 355 354 351 348 346 344 342 340 337 335 334 333 333 334 334 333 333 332 332 332 332 331 331 331 331 332 332 332 332 332 332 330 329 328
40 36 33 31 28 26 25 23 22 21 21 20 19 19 18 18 17 16 15 14 12 10 9 7 5 3 1 359 357 356 356 356 356 357 358 359 1 3 6 9 11 12 13 13 13 12 11 10 8 6 4 2 359 357 355 351 349 347 344 342 340 338 337 336 335 335 335 335 335 334 333 333 333 333 332 332 332 333 333 333 334 334 333 332 330 329 328
36 33 30 28 26 24 22 20 19 19 18 17 16 15 15 16 15 15 14 13 11 10 8 7 6 4 3 2 1 1 0 1 2 4 7 10 13 17 19 21 23 22 21 20 19 17 15 13 10 7 5 2 359 357 355 352 349 347 345 342 341 339 338 338 337 337 336 336 335 335 334 333 333 333 333 332 333 334 334 335 335 334 333 332 330 329 328
33 29 27 25 23 21 19 18 17 15 15 14 13 13 13 13 13 13 12 11 11 10 8 8 7 6 5 5 5 5 5 8 11 15 19 23 26 29 30 30 29 28 25 23 21 17 14 11 8 6 3 1 358 356 354 351 349 346 344 343 341 340 339 338 338 337 337 336 335 334 334 334 333 333 333 333 334 335 335 336 335 335 334 332 330 329 329
29 27 24 22 20 18 17 15 14 13 12 11 11 10 11 12 12 12 11 11 10 9 9 8 7 7 8 8 9 10 13 17 22 26 30 32 34 34 33 31 29 26 23 20 17 14 11 8 5 3 1 358 356 355 353 350 348 346 344 343 341 340 339 338 338 337 337 336 335 335 335 334 334 333 334 334 335 336 336 336 335 335 334 332 331 330 330
26 23 21 19 17 15 14 13 11 10 10 9 8 9 10 11 11 10 10 10 10 9 9 9 9 10 11 12 14 17 21 25 29 32 34 34 34 32 30 28 25 22 18 15 12 9 7 5 3 1 359 356 354 353 351 349 347 345 344 342 341 340 339 338 338 338 338 337 336 336 335 335 335 334 335 335 336 336 336 336 336 335 334 333 332 331 331
22 20 18 16 15 13 11 10 9 9 8 7 7 8 9 10 9 9 10 10 10 9 10 10 11 12 14 17 20 23 26 29 32 33 33 32 30 28 25 22 20 17 14 12 9 6 4 2 0 359 357 355 353 352 350 348 347 345 343 342 341 340 339 339 339 339 338 338 337 336 336 335 335 335 335 336 336 337 337 337 336 335 334 333 332 331 332
20 18 16 14 12 11 9 8 7 7 6 6 7 8 8 8 8 9 9 10 10 10 11 11 13 15 17 20 24 27 29 31 32 32 31 29 26 23 20 17 14 12 10 8 6 4 2 0 359 357 356 354 352 351 350 348 346 345 343 342 341 340 340 340 340 339 339 338 337 337 336 335 335 335 336 337 338 338 337 337 336 335 334 333 332 332 332
18 16 14 12 11 9 8 6 6 5 5 6 7 7 7 8 8 8 9 9 10 10 12 13 15 18 21 24 26 29 30 30 30 29 28 26 22 19 17 13 11 9 7 6 4 2 0 359 357 356 354 353 352 350 349 348 346 345 344 342 342 341 341 340 340 340 339 338 338 337 336 336 336 336 337 338 338 338 338 337 336 335 334 333 333 333 333
16 14 13 11 9 8 7 5 5 5 5 6 7 7 7 7 8 8 9 9 10 11 13 15 17 19 22 25 27 28 29 29 28 27 25 23 20 16 14 11 9 7 6 4 2 1 360 358 356 355 354 352 351 350 349 348 346 345 344 343 342 342 341 341 341 340 339 338 338 338 337 337 337 337 337 338 339 338 338 337 336 335 335 334 334 334 334
15 13 12 10 8 7 5 5 4 5 6 6 7 7 7 7 8 8 8 9 10 11 13 15 17 19 21 24 26 26 26 27 26 25 22 20 18 14 12 10 7 6 5 3 1 360 359 357 355 354 353 352 351 350 349 347 346 345 344 344 343 342 342 341 341 340 339 339 338 338 338 338 338 338 338 339 339 339 338 338 337 337 336 336 336 335 335
14 12 11 9 8 6 5 5 5 5 6 7 7 6 6 6 7 8 8 8 10 11 13 15 17 19 20 22 24 25 24 24 24 22 20 18 15 12 10 8 6 5 4 2 360 359 358 356 354 353 352 351 350 350 349 347 346 346 345 344 344 343 342 342 342 341 340 339 339 339 339 339 339 339 340 340 340 340 339 339 338 338 338 337 337 336 337
13 12 11 9 7 6 5 5 5 6 7 7 6 6 6 6 7 7 7 8 10 12 13 15 16 18 20 20 21 22 22 22 20 19 17 15 13 11 9 7 5 4 3 1 360 359 358 356 354 353 352 351 350 349 348 347 346 346 345 344 344 344 343 343 342 341 340 340 340 340 340 340 340 340 341 341 341 341 340 339 339 339 339 338 338 338 338
14 12 10 9 7 6 6 6 6 6 7 7 6 5 5 6 6 6 6 7 9 11 12 13 15 16 18 18 18 19 20 19 17 15 14 13 11 9 7 6 5 4 2 1 0 359 358 356 355 353 352 351 350 349 348 347 346 346 345 345 345 344 343 343 343 342 341 341 341 341 341 341 341 342 342 342 342 341 341 340 340 340 340 340 339 339 339
14 12 10 9 8 7 7 6 7 7 7 7 6 5 5 5 5 5 6 7 8 9 10 11 13 14 14 14 15 16 17 16 14 12 11 11 9 7 6 6 4 3 2 1 0 359 358 357 356 354 353 352 350 349 348 348 347 346 346 345 345 344 344 343 343 343 343 342 342 342 342 342 342 342 343 343 343 342 341 341 341 341 341 341 340 341 341
13 12 10 9 9 8 7 7 7 7 7 6 6 5 5 5 4 5 5 5 5 6 8 8 9 10 10 11 12 12 12 12 11 10 8 8 7 5 5 4 3 2 1 1 0 359 358 357 356 355 353 352 351 350 349 348 347 347 346 346 345 345 344 344 344 344 343 343 343 343 343 343 343 343 343 343 343 343 343 342 343 343 343 342 342 342 343
13 11 11 10 9 8 7 7 7 7 6 6 5 5 5 4 3 3 4 4 3 4 6 6 5 6 7 7 7 8 8 8 7 6 6 5 5 4 3 3 2 1 0 360 359 358 357 356 356 355 354 352 351 350 349 349 348 347 347 346 345 345 344 344 344 344 344 344 344 344 344 344 344 344 344 344 345 344 344 344 344 344 344 344 343 344 344
12 11 11 10 9 8 8 7 7 6 6 5 5 5 5 4 3 2 2 2 2 2 3 3 2 2 3 2 2 3 3 3 3 3 3 2 2 2 1 1 1 360 359 358 358 357 356 355 355 354 354 353 352 351 350 349 349 348 347 346 346 345 345 345 345 345 345 345 345 345 345 345 345 345 345 346 346 346 345 345 345 346 345 345 345 345 345
11 11 10 10 9 8 8 7 6 6 5 5 4 4 4 3 2 1 1 0 0 360 0 0 360 358 358 358 357 357 358 359 359 359 359 359 359 360 360 359 359 359 358 357 356 356 355 355 354 354 353 352 352 351 351 350 349 348 347 347 346 346 346 346 346 345 345 346 346 346 346 346 346 346 346 347 347 347 346 346 346 346 346 345 345 345 346
11 10 10 9 9 8 7 6 6 5 5 4 4 4 4 3 2 1 359 358 358 358 357 357 356 355 354 354 353 352 353 355 355 356 356 357 357 357 357 357 357 357 356 356 355 354 354 354 354 353 352 352 352 351 351 350 350 348 348 347 347 347 347 346 346 346 346 346 347 347 347 347 347 347 347 347 347 348 348 347 347 347 347 346 346 346 346
9 10 9 9 9 8 7 6 5 5 4 3 3 3 3 2 1 360 358 356 356 356 355 354 353 351 350 350 350 349 350 351 352 352 353 354 354 355 356 356 356 356 355 354 354 353 353 353 353 353 352 352 352 351 351 351 350 349 348 347 347 347 347 347 347 347 347 347 347 347 347 347 347 347 347 348 348 348 348 348 348 348 348 347 346 346 347
8 8 8 8 8 8 6 5 5 4 3 3 3 3 3 2 1 359 357 355 354 353 352 351 350 348 346 346 346 346 346 347 349 349 350 351 352 353 354 354 354 354 354 353 353 352 352 352 352 352 352 352 351 351 351 351 350 349 348 348 348 348 348 348 347 347 347 348 348 348 348 348 347 348 348 348 349 349 349 349 349 349 349 348 347 346 347
6 7 7 7 8 7 5 4 4 3 3 3 2 2 2 1 0 358 356 353 351 349 349 348 347 345 343 342 343 343 343 344 345 346 348 349 351 351 352 352 352 352 352 352 352 351 351 351 351 351 352 352 351 351 351 351 350 349 348 348 348 348 348 348 348 348 348 348 348 348 348 348 348 348 348 349 349 349 349 349 349 350 350 349 347 347 347
4 5 5 6 7 6 5 4 3 3 2 2 1 1 1 0 359 358 355 353 350 347 346 345 344 342 341 340 340 340 340 341 343 344 346 347 349 349 350 350 350 351 351 351 350 350 351 351 351 351 352 352 351 351 351 351 350 349 349 348 348 348 349 348 348 348 349 349 349 349 349 348 348 348 348 349 350 350 350 350 350 350 350 350 349 347 347
2 2 3 4 5 5 4 3 2 2 1 1 0 360 360 359 359 357 356 353 349 346 343 342 341 340 339 338 338 337 337 338 340 341 343 345 346 347 348 348 348 349 349 349 349 349 349 350 350 351 351 351 351 351 351 351 350 350 349 349 349 349 349 349 349 349 349 349 349 349 349 349 348 348 348 349 350 350 350 350 350 350 350 350 350 348 347
359 0 1 2 3 3 3 2 1 0 360 360 359 359 358 358 358 357 356 353 350 346 342 340 338 338 336 336 336 335 334 335 337 338 340 342 344 345 345 346 346 346 347 347 347 348 348 349 350 350 351 351 352 351 351 351 350 350 349 349 349 349 349 349 349 349 350 350 350 350 350 349 349 349 349 349 349 350 350 350 350 349 350 350 350 349 348
356 358 359 0 1 1 1 1 0 359 359 358 358 357 357 357 357 356 355 354 351 347 342 338 336 335 334 334 334 333 332 333 334 336 337 339 341 342 343 344 344 344 345 345 345 346 347 347 348 350 351 351 352 351 351 351 350 350 350 349 349 349 349 349 349 350 350 350 351 351 350 350 350 349 349 349 349 350 350 350 349 349 349 349 349 349 349
354 355 357 358 359 359 360 359 359 358 357 357 357 356 356 356 356 355 355 354 352 348 344 339 335 333 332 332 331 331 331 331 332 333 334 336 338 339 340 341 342 342 342 343 343 344 345 346 347 349 350 351 351 351 351 351 350 350 350 349 349 349 350 350 350 350 350 351 351 351 351 351 351 350 350 349 349 349 350 350 350 349 349 349 349 350 350
351 353 354 355 356 357 357 358 357 357 356 356 356 355 355 354 354 354 355 354 353 350 346 341 337 333 331 330 329 330 330 330 330 330 332 333 335 336 338 339 339 340 340 341 342 343 344 345 346 347 349 350 351 351 351 351 350 350 350 349 350 350 350 350 350 350 351 351 352 352 352 352 352 351 350 350 349 349 350 350 350 350 349 349 350 350 351
348 350 351 352 353 354 355 356 356 356 355 355 354 354 354 353 353 353 353 353 353 351 348 344 339 334 331 329 329 329 329 329 329 328 329 331 332 333 335 336 337 337 338 339 340 341 342 343 344 346 348 350 351 351 351 350 350 350 350 350 350 350 350 350 351 351 351 352 352 353 353 353 353 352 352 351 350 350 350 350 350 350 350 350 350 351 351